When you browse on this site, cookies collect data to enhance your experience and personalize the content and advertising you see.
Visit our Privacy Policy to learn more. By continuing to use the site, you agree to this use of cookies and data.

Hourly Weather Leski

Today, 15 August, Saturday

Time Temperature Precipitation Wind Pressure Humidity
00:00 +9°C° 0 mm 2 mps 743 mmHg 87%
01:00 +8°C° 0 mm 2 mps 743 mmHg 88%
02:00 +8°C° 0 mm 2 mps 743 mmHg 92%
03:00 +8°C° 0 mm 2 mps 743 mmHg 92%
04:00 +8°C° 0 mm 2 mps 743 mmHg 93%
05:00 +8°C° 0 mm 2 mps 744 mmHg 93%
06:00 +10°C° 0 mm 2 mps 744 mmHg 86%
07:00 +12°C° 0 mm 3 mps 744 mmHg 80%
08:00 +14°C° 0 mm 3 mps 744 mmHg 73%
09:00 +16°C° 0 mm 3 mps 744 mmHg 68%
10:00 +17°C° 0 mm 3 mps 744 mmHg 63%
11:00 +18°C° 0 mm 3 mps 744 mmHg 58%
12:00 +19°C° 0 mm 3 mps 743 mmHg 57%
13:00 +19°C° 0 mm 3 mps 743 mmHg 57%
14:00 +19°C° 0 mm 3 mps 743 mmHg 57%
15:00 +19°C° 0 mm 3 mps 743 mmHg 61%
16:00 +18°C° 0 mm 3 mps 743 mmHg 65%
17:00 +18°C° 0 mm 2 mps 743 mmHg 69%
18:00 +17°C° 0 mm 2 mps 742 mmHg 71%
19:00 +16°C° 0 mm 2 mps 742 mmHg 74%
20:00 +15°C° 0 mm 2 mps 742 mmHg 77%
21:00 +15°C° 0 mm 2 mps 742 mmHg 79%
22:00 +14°C° 0 mm 1 mps 742 mmHg 82%
23:00 +14°C° 0 mm 1 mps 742 mmHg 85%

Tomorrow, 16 August, Sunday

Time Temperature Precipitation Wind Pressure Humidity
00:00 +14°C° 0 mm 1 mps 742 mmHg 87%
01:00 +13°C° 0 mm 1 mps 742 mmHg 89%
02:00 +13°C° 0 mm 1 mps 742 mmHg 91%
03:00 +13°C° 0 mm 1 mps 742 mmHg 92%
04:00 +13°C° 0 mm 1 mps 742 mmHg 93%
05:00 +12°C° 0 mm 1 mps 741 mmHg 94%
06:00 +14°C° 0 mm 1 mps 742 mmHg 89%
07:00 +15°C° 0 mm 1 mps 742 mmHg 84%
08:00 +18°C° 0 mm 1 mps 742 mmHg 79%
09:00 +18°C° 0 mm 1 mps 742 mmHg 75%
10:00 +18°C° 0 mm 2 mps 741 mmHg 72%
11:00 +19°C° 0 mm 2 mps 741 mmHg 68%
12:00 +20°C° 0 mm 2 mps 741 mmHg 66%
13:00 +20°C° 0 mm 2 mps 741 mmHg 64%
14:00 +21°C° 0 mm 2 mps 741 mmHg 63%
15:00 +21°C° 0 mm 2 mps 741 mmHg 65%
16:00 +21°C° 0 mm 2 mps 741 mmHg 68%
17:00 +21°C° 0 mm 2 mps 740 mmHg 71%
18:00 +19°C° 0 mm 2 mps 740 mmHg 76%
19:00 +18°C° 0 mm 2 mps 740 mmHg 81%
20:00 +17°C° 0 mm 2 mps 740 mmHg 86%
21:00 +16°C° 0 mm 2 mps 740 mmHg 88%
22:00 +16°C° 0 mm 2 mps 740 mmHg 91%
23:00 +16°C° 0 mm 3 mps 740 mmHg 93%

Day after tomorrow, 17 August, Monday

Time Temperature Precipitation Wind Pressure Humidity
00:00 +14°C° 0 mm 3 mps 740 mmHg 94%
01:00 +14°C° 0 mm 3 mps 740 mmHg 94%
02:00 +14°C° 0 mm 3 mps 740 mmHg 94%
03:00 +14°C° 0 mm 3 mps 740 mmHg 94%
04:00 +14°C° 0 mm 3 mps 740 mmHg 94%
05:00 +14°C° 0 mm 3 mps 740 mmHg 94%
06:00 +17°C° 0 mm 3 mps 740 mmHg 88%
07:00 +18°C° 0 mm 4 mps 740 mmHg 82%
08:00 +20°C° 0 mm 4 mps 740 mmHg 76%
09:00 +22°C° 0 mm 4 mps 740 mmHg 71%
10:00 +23°C° 0 mm 5 mps 740 mmHg 66%
11:00 +25°C° 0 mm 5 mps 739 mmHg 61%
12:00 +26°C° 0.1 mm 5 mps 739 mmHg 60%
13:00 +26°C° 0.1 mm 5 mps 739 mmHg 59%
14:00 +26°C° 0.1 mm 6 mps 739 mmHg 58%
15:00 +26°C° 0.3 mm 5 mps 739 mmHg 62%
16:00 +25°C° 0.3 mm 4 mps 739 mmHg 67%
17:00 +24°C° 0.3 mm 3 mps 739 mmHg 72%
18:00 +22°C° 0 mm 3 mps 739 mmHg 75%
19:00 +20°C° 0 mm 3 mps 739 mmHg 79%
20:00 +19°C° 0 mm 3 mps 739 mmHg 83%
21:00 +18°C° 0 mm 3 mps 739 mmHg 86%
22:00 +18°C° 0 mm 3 mps 739 mmHg 89%
23:00 +17°C° 0 mm 3 mps 739 mmHg 91%

18 August, Tuesday

Time Temperature Precipitation Wind Pressure Humidity
00:00 +17°C° 0 mm 2 mps 739 mmHg 92%
01:00 +16°C° 0 mm 2 mps 739 mmHg 93%
02:00 +16°C° 0 mm 2 mps 739 mmHg 94%
03:00 +16°C° 0 mm 2 mps 739 mmHg 94%
04:00 +15°C° 0 mm 1 mps 739 mmHg 94%
05:00 +15°C° 0 mm 1 mps 739 mmHg 95%
06:00 +18°C° 0 mm 1 mps 739 mmHg 89%
07:00 +19°C° 0 mm 1 mps 739 mmHg 83%
08:00 +21°C° 0 mm 1 mps 740 mmHg 77%
09:00 +22°C° 0 mm 1 mps 740 mmHg 72%
10:00 +23°C° 0 mm 1 mps 740 mmHg 68%
11:00 +24°C° 0 mm 1 mps 740 mmHg 63%
12:00 +25°C° 0 mm 1 mps 739 mmHg 60%
13:00 +25°C° 0 mm 1 mps 739 mmHg 58%
14:00 +25°C° 0 mm 1 mps 739 mmHg 55%
15:00 +25°C° 0 mm 1 mps 739 mmHg 58%
16:00 +25°C° 0 mm 1 mps 739 mmHg 61%
17:00 +24°C° 0 mm 1 mps 738 mmHg 65%
18:00 +23°C° 0 mm 1 mps 738 mmHg 68%
19:00 +22°C° 0 mm 1 mps 738 mmHg 72%
20:00 +20°C° 0 mm 1 mps 738 mmHg 75%
21:00 +20°C° 0.6 mm 1 mps 738 mmHg 80%
22:00 +19°C° 0.6 mm 1 mps 738 mmHg 84%
23:00 +19°C° 0.6 mm 1 mps 738 mmHg 89%

19 August, Wednesday

Time Temperature Precipitation Wind Pressure Humidity
00:00 +19°C° 0.1 mm 1 mps 738 mmHg 89%
01:00 +19°C° 0.1 mm 1 mps 738 mmHg 89%
02:00 +19°C° 0.1 mm 1 mps 738 mmHg 89%
03:00 +19°C° 0 mm 1 mps 738 mmHg 90%
04:00 +19°C° 0 mm 1 mps 738 mmHg 90%
05:00 +18°C° 0 mm 1 mps 738 mmHg 91%
06:00 +19°C° 0 mm 1 mps 738 mmHg 89%
07:00 +20°C° 0 mm 1 mps 738 mmHg 87%
08:00 +20°C° 0 mm 1 mps 738 mmHg 85%
09:00 +19°C° 0.1 mm 2 mps 738 mmHg 83%
10:00 +20°C° 0.1 mm 2 mps 738 mmHg 82%
11:00 +20°C° 0.1 mm 3 mps 738 mmHg 80%
12:00 +20°C° 0.3 mm 3 mps 738 mmHg 81%
13:00 +20°C° 0.3 mm 4 mps 738 mmHg 83%
14:00 +20°C° 0.3 mm 4 mps 738 mmHg 84%
15:00 +19°C° 0.1 mm 4 mps 738 mmHg 86%
16:00 +19°C° 0.1 mm 3 mps 737 mmHg 88%
17:00 +18°C° 0.1 mm 3 mps 737 mmHg 89%
18:00 +18°C° 0 mm 3 mps 737 mmHg 89%
19:00 +18°C° 0 mm 3 mps 737 mmHg 89%
20:00 +17°C° 0 mm 4 mps 737 mmHg 89%
21:00 +17°C° 0.1 mm 4 mps 737 mmHg 90%
22:00 +17°C° 0.1 mm 4 mps 737 mmHg 91%
23:00 +17°C° 0.1 mm 4 mps 737 mmHg 92%

20 August, Thursday

Time Temperature Precipitation Wind Pressure Humidity
00:00 +17°C° 0 mm 4 mps 736 mmHg 92%
01:00 +17°C° 0 mm 3 mps 736 mmHg 92%
02:00 +18°C° 0 mm 3 mps 736 mmHg 93%
03:00 +18°C° 0.1 mm 3 mps 736 mmHg 91%
04:00 +18°C° 0.1 mm 3 mps 736 mmHg 90%
05:00 +18°C° 0.1 mm 4 mps 736 mmHg 88%
06:00 +18°C° 0.3 mm 4 mps 736 mmHg 87%
07:00 +19°C° 0.3 mm 3 mps 736 mmHg 85%
08:00 +19°C° 0.3 mm 3 mps 736 mmHg 83%
09:00 +20°C° 0.4 mm 3 mps 736 mmHg 82%
10:00 +20°C° 0.4 mm 3 mps 736 mmHg 81%
11:00 +20°C° 0.4 mm 3 mps 736 mmHg 79%
12:00 +20°C° 0.1 mm 3 mps 736 mmHg 81%
13:00 +20°C° 0.1 mm 3 mps 736 mmHg 82%
14:00 +20°C° 0.1 mm 3 mps 736 mmHg 84%
15:00 +20°C° 0.2 mm 3 mps 736 mmHg 84%
16:00 +20°C° 0.2 mm 3 mps 736 mmHg 85%
17:00 +20°C° 0.2 mm 3 mps 736 mmHg 85%
18:00 +20°C° 0.1 mm 3 mps 736 mmHg 86%
19:00 +19°C° 0.1 mm 3 mps 736 mmHg 87%
20:00 +19°C° 0.1 mm 3 mps 736 mmHg 88%
21:00 +19°C° 0 mm 3 mps 736 mmHg 89%
22:00 +19°C° 0 mm 3 mps 736 mmHg 90%
23:00 +18°C° 0 mm 3 mps 736 mmHg 91%
Show more